Weather History for Salem, IL

Change the Weather History Date:

Saturday, October 6, 2012

  Actual Average Record
Temperature  
Mean Temperature 45 °F -  
Max Temperature 53 °F 71 °F 89 °F (1963)
Min Temperature 37 °F 47 °F 32 °F (1964)
Degree Days  
Heating Degree Days 20    
Moisture  
Dew Point 32 °F    
Average Humidity 64    
Maximum Humidity 89    
Minimum Humidity 36    
Precipitation  
Precipitation 0.02 in - - ()
Sea Level Pressure  
Sea Level Pressure 30.21 in    
Wind  
Wind Speed 6 mph (NW)    
Max Wind Speed 12 mph    
Max Gust Speed 18 mph    
Visibility 10 miles    
Events      
Averages and records for this station are not official NWS values.
T = Trace of Precipitation, MM = Missing Value Source: NWS Daily Summary

Daily Weather History Graph

Daily Weather History Graph

Search for Another Location

Airport:

Trip Planner

Search our weather history database for the weather conditions in past years. The results will help you decide how hot, cold, wet, or windy it might be!

Date:

Astronomy

Oct. 06, 2012 Rise Set
Actual Time 6:56 AM CDT 6:30 PM CDT
Civil Twilight 6:30 AM CDT 6:56 PM CDT
Nautical Twilight 5:59 AM CDT 7:27 PM CDT
Astronomical Twilight 5:28 AM CDT 7:58 PM CDT
Moon 10:48 PM CDT (10/6) 12:48 PM CDT (10/6)
Length of Visible Light 12h 26m
Length of Day
11h 33m
Waning Gibbous, 65% of the Moon is Illuminated
Oct 6
Waning Gibbous
Oct 8
Last Quarter
Oct 15
New
Oct 21
First Quarter
Oct 29
Full

Hourly Weather History & Observations

Time (CDT) Temp. Windchill Dew Point Humidity Pressure Visibility Wind Dir Wind Speed Gust Speed Precip Events Conditions
12:15 AM 41.4 °F 36.8 °F 37.0 °F 85% 30.19 in 10.0 mi NW 6.9 mph - N/A   Clear
12:35 AM 41.0 °F 38.0 °F 36.7 °F 85% 30.19 in 10.0 mi NW 4.6 mph - N/A   Clear
12:55 AM 40.5 °F 37.3 °F 36.5 °F 86% 30.18 in 10.0 mi NW 4.6 mph - N/A   Clear
1:15 AM 39.9 °F 36.7 °F 36.1 °F 86% 30.18 in 10.0 mi NW 4.6 mph - N/A   Clear
1:35 AM 39.6 °F - 36.0 °F 87% 30.18 in 10.0 mi Calm Calm - N/A   Clear
1:55 AM 39.2 °F 37.0 °F 35.6 °F 87% 30.19 in 10.0 mi WNW 3.5 mph - N/A   Clear
2:15 AM 39.2 °F 35.9 °F 35.6 °F 87% 30.20 in 10.0 mi NW 4.6 mph - N/A   Clear
2:35 AM 38.8 °F 35.4 °F 35.2 °F 87% 30.20 in 10.0 mi WNW 4.6 mph - N/A   Clear
2:55 AM 39.2 °F 35.0 °F 34.9 °F 84% 30.20 in 10.0 mi West 5.8 mph - N/A   Clear
3:15 AM 38.3 °F 34.8 °F 34.7 °F 87% 30.18 in 10.0 mi WNW 4.6 mph - N/A   Clear
3:35 AM 37.6 °F - 34.5 °F 89% 30.19 in 10.0 mi Calm Calm - N/A   Clear
3:55 AM 37.9 °F 34.4 °F 34.7 °F 88% 30.18 in 10.0 mi WNW 4.6 mph - N/A   Clear
4:15 AM 37.9 °F 34.4 °F 34.3 °F 87% 30.19 in 10.0 mi WNW 4.6 mph - N/A   Clear
4:35 AM 37.8 °F 34.2 °F 34.2 °F 87% 30.19 in 10.0 mi WNW 4.6 mph - N/A   Clear
4:55 AM 37.4 °F 32.8 °F 34.5 °F 89% 30.19 in 10.0 mi WNW 5.8 mph - N/A   Clear
5:15 AM 37.6 °F 32.3 °F 34.2 °F 87% 30.20 in 10.0 mi WNW 6.9 mph - N/A   Clear
5:35 AM 37.6 °F 34.0 °F 34.2 °F 87% 30.21 in 10.0 mi WNW 4.6 mph - N/A   Clear
5:55 AM 37.6 °F 32.3 °F 34.3 °F 88% 30.22 in 10.0 mi WNW 6.9 mph - N/A   Clear
6:15 AM 37.6 °F 33.1 °F 34.5 °F 89% 30.23 in 10.0 mi WNW 5.8 mph - N/A   Clear
6:35 AM 37.8 °F 31.8 °F 34.0 °F 86% 30.23 in 10.0 mi NW 8.1 mph - N/A   Clear
6:55 AM 39.2 °F 33.6 °F 33.8 °F 81% 30.23 in 10.0 mi NW 8.1 mph - N/A   Clear
7:15 AM 38.3 °F 33.2 °F 33.8 °F 84% 30.23 in 10.0 mi NNW 6.9 mph - N/A   Clear
7:35 AM 38.5 °F 34.1 °F 33.8 °F 83% 30.23 in 10.0 mi NNW 5.8 mph - N/A   Clear
7:55 AM 39.4 °F 35.2 °F 34.2 °F 82% 30.23 in 10.0 mi NNW 5.8 mph - N/A   Clear
8:15 AM 39.2 °F 35.9 °F 33.8 °F 81% 30.23 in 10.0 mi North 4.6 mph - N/A   Clear
8:35 AM 40.5 °F 34.6 °F 33.4 °F 76% 30.23 in 10.0 mi North 9.2 mph - N/A   Clear
8:55 AM 42.8 °F 40.1 °F 33.8 °F 70% 30.23 in 10.0 mi North 4.6 mph - N/A   Clear
9:15 AM 42.1 °F 38.4 °F 32.2 °F 68% 30.24 in 10.0 mi North 5.8 mph - N/A   Clear
9:35 AM 43.3 °F 38.6 °F 32.2 °F 65% 30.23 in 10.0 mi NNW 8.1 mph - N/A   Clear
9:55 AM 44.1 °F 39.5 °F 31.6 °F 62% 30.24 in 10.0 mi NNW 8.1 mph - N/A   Clear
10:15 AM 44.8 °F 39.9 °F 31.8 °F 60% 30.24 in 10.0 mi NNW 9.2 mph - N/A   Clear
10:35 AM 46.8 °F - 32.2 °F 57% 30.23 in 10.0 mi North 6.9 mph - N/A   Clear
10:55 AM 46.8 °F - 29.3 °F 51% 30.23 in 10.0 mi NNW 6.9 mph 10.4 mph N/A   Clear
11:15 AM 47.5 °F - 28.6 °F 48% 30.23 in 10.0 mi NW 9.2 mph - N/A   Clear
11:35 AM 48.6 °F - 29.8 °F 48% 30.23 in 10.0 mi NW 8.1 mph - N/A   Clear
11:55 AM 49.8 °F - 27.5 °F 42% 30.23 in 10.0 mi NNW 8.1 mph - N/A   Clear
12:15 PM 49.8 °F - 28.2 °F 43% 30.23 in 10.0 mi NNW 8.1 mph - N/A   Clear
12:35 PM 50.9 °F - 29.8 °F 44% 30.22 in 10.0 mi NW 9.2 mph - N/A   Clear
12:55 PM 52.3 °F - 30.4 °F 43% 30.22 in 10.0 mi WNW 11.5 mph - N/A   Clear
1:15 PM 52.7 °F - 26.8 °F 37% 30.21 in 10.0 mi NW 10.4 mph 16.1 mph N/A   Clear
1:35 PM 53.4 °F - 27.1 °F 36% 30.21 in 10.0 mi WNW 11.5 mph - N/A   Clear
1:55 PM 52.7 °F - 27.0 °F 37% 30.21 in 10.0 mi NNW 11.5 mph - N/A   Clear
2:15 PM 51.8 °F - 26.4 °F 37% 30.21 in 10.0 mi WNW 11.5 mph 18.4 mph N/A   Scattered Clouds
2:35 PM 51.3 °F - 27.1 °F 39% 30.21 in 10.0 mi NW 9.2 mph - N/A   Mostly Cloudy
2:55 PM 51.4 °F - 27.9 °F 40% 30.21 in 10.0 mi NW 8.1 mph - N/A   Overcast
3:15 PM 50.9 °F - 27.7 °F 41% 30.20 in 10.0 mi WNW 5.8 mph - N/A   Overcast
3:35 PM 50.9 °F - 28.2 °F 42% 30.20 in 10.0 mi WNW 6.9 mph - N/A   Overcast
3:55 PM 50.9 °F - 27.7 °F 41% 30.19 in 10.0 mi NNW 6.9 mph - N/A   Overcast
4:15 PM 50.9 °F - 28.2 °F 42% 30.20 in 10.0 mi NW 6.9 mph - N/A   Overcast
4:35 PM 50.5 °F - 28.6 °F 43% 30.20 in 10.0 mi NW 6.9 mph - N/A   Overcast
4:55 PM 50.0 °F - 28.4 °F 43% 30.20 in 10.0 mi NNW 8.1 mph - N/A   Overcast
5:15 PM 49.6 °F - 29.5 °F 46% 30.20 in 10.0 mi NNW 10.4 mph - N/A   Overcast
5:35 PM 49.3 °F - 29.5 °F 46% 30.20 in 10.0 mi NNW 8.1 mph - N/A   Overcast
5:55 PM 48.7 °F - 29.7 °F 48% 30.20 in 10.0 mi NW 9.2 mph - N/A   Mostly Cloudy
6:15 PM 48.2 °F - 30.0 °F 49% 30.21 in 10.0 mi NW 5.8 mph - N/A   Clear
6:35 PM 47.8 °F - 30.9 °F 52% 30.21 in 10.0 mi NW 5.8 mph - N/A   Mostly Cloudy
6:55 PM 47.5 °F - 31.8 °F 55% 30.20 in 10.0 mi NW 3.5 mph - N/A   Overcast
7:15 PM 47.3 °F - 32.0 °F 55% 30.20 in 10.0 mi NW 3.5 mph - N/A   Overcast
7:35 PM 46.6 °F - 33.3 °F 60% 30.21 in 10.0 mi NNW 3.5 mph - N/A   Mostly Cloudy
7:55 PM 46.9 °F - 32.5 °F 57% 30.21 in 10.0 mi NW 4.6 mph - N/A   Mostly Cloudy
8:15 PM 46.6 °F - 33.4 °F 60% 30.22 in 10.0 mi NW 3.5 mph - N/A   Overcast
8:35 PM 46.4 °F 44.3 °F 33.4 °F 61% 30.22 in 10.0 mi WNW 4.6 mph - N/A   Overcast
8:55 PM 46.2 °F 43.3 °F 33.6 °F 61% 30.23 in 10.0 mi WNW 5.8 mph - N/A   Overcast
9:15 PM 45.9 °F 42.9 °F 33.4 °F 62% 30.23 in 10.0 mi NW 5.8 mph - N/A   Mostly Cloudy
9:35 PM 45.5 °F 41.8 °F 32.4 °F 60% 30.24 in 10.0 mi NW 6.9 mph - N/A   Mostly Cloudy
9:55 PM 45.5 °F 41.3 °F 31.5 °F 58% 30.24 in 10.0 mi NNW 8.1 mph - N/A   Overcast
10:15 PM 45.1 °F 40.3 °F 31.3 °F 58% 30.24 in 10.0 mi NNW 9.2 mph - N/A   Scattered Clouds
10:35 PM 44.6 °F 40.7 °F 31.1 °F 59% 30.23 in 10.0 mi NNW 6.9 mph - N/A   Mostly Cloudy
10:55 PM 44.6 °F 40.2 °F 31.1 °F 59% 30.23 in 10.0 mi NNW 8.1 mph - N/A   Overcast
11:15 PM 44.1 °F 39.5 °F 31.1 °F 60% 30.23 in 10.0 mi NNW 8.1 mph - N/A   Overcast
11:35 PM 43.9 °F 40.5 °F 31.3 °F 61% 30.22 in 10.0 mi NNW 5.8 mph - N/A   Overcast
11:55 PM 43.7 °F 40.3 °F 31.3 °F 62% 30.22 in 10.0 mi NNW 5.8 mph - N/A   Overcast